User: anonymous   Login
Location: Key Biscayne
(25.6930°N, 80.1630°W)
Time: 16:47:12
(UTC-04:00)
Language:

CZ-2D R/B - Orbit

View from above orbital plane
View from above orbital plane
View from above satellite
View from above satellite

Ground track
Ground track

The orbit data is extracted from the following two-line orbital elements,

1 28738U 05024B   15089.84026745  .00005682  00000-0  36534-3 0  9993
2 28738 097.5968 127.3642 0011283 261.4363 098.5587 15.08754582533658
Epoch (UTC): 30 March 2015 20:09:59
Eccentricity: 0.0011283
inclination: 97.5968°
perigee height: 532 km
apogee height: 548 km
right ascension of ascending node: 127.3642°
argument of perigee: 261.4363°
revolutions per day: 15.08754582
mean anomaly at epoch: 98.5587°
orbit number at epoch: 53365

The dashed part of the orbit path shows where the satellite is in the earth's shadow,  

DLR